Unsubscribe Automatically:

[TLELIST] 0 HST 1 20580U 90037B 26264.99251231 .00004632 00000-0 13955-3 0 9997 2 20580 28.4728 138.4446 0001816 132.0009 228.0742 15.31715781803420 0 ISS (ZARYA) 1 25544U 98067A 26265.14225571 .00007091 00000-0 13570-3 0 9994 2 25544 51.6312 180.2431 0004771 167.1129 192.9982 15.49222361586784 0 CXO 1 25867U 99040B 26267.22283988 .00001017 00000-0 00000-0 0 9994 2 25867 57.5064 114.1177 7686103 309.2542 0.4828 0.37800426 17690